sat.trackr.live / text

‹ back to catalog

STARLINK-37342

NORAD 68752 · 2026-082AA

PAYLOAD ACTIVE UNKNOWN

§ Identity

Operator
Country
US
Launch date
2026-04-15
Launch site
AFWTR
Launch vehicle
Mass (kg)
RCS (m²)

Purposes: comms

External: N2YO · Heavens-Above · Gunter

§ Orbital elements

Epoch: 2026-09-20T03:30:56.187360Z

Period
93.91 min
Inclination
97.2848°
Eccentricity
0.0002134
Mean motion
15.33449807 rev/d
Perigee alt
464.1 km
Apogee alt
467.0 km
Semi-major
6,843.7 km
B*
2.9098e-4
RAAN
125.3385°
Arg perigee
88.1316°
Mean anomaly
272.0171°
Rev number
2,425

§ Raw data

STARLINK-373421 68752U 26082AA  26263.14648365  .00009332  00000+0  29098-3 0  99992 68752  97.2848 125.3385 0002134  88.1316 272.0171 15.33449807 24259

JSON: /api/v1/satellites/68752 · /tle

For live sub-satellite position, see the globe view (requires WebGL).

§ Visibility from observer

Set your observer location to see the next 7 days of passes ≥ 10°. The values pass through the URL so the page stays shareable.

No JS? Fill the form by hand. The geolocation button needs JavaScript.